map of YQY home
YQY - Airport
Location
City:  Sydney, Nova Scotia, Canada
Name:J.A. Douglas McCurdy Airport
ICAO:CYQY
IATA:YQY

Details
Type:Airport (Airfield)
Use:Public/Civil
Latitude:4609'41"N (46.161389)
Longitude:6002'53"W (-60.048055)
Elevation:203 ft (62 m)
Variation:17.79W (WMM2015v2 magnetic declination)
0.17 annual change
Runways:2
Longest:7070 ft (2155 m), paved

Time
Time Zone:UTC-4 (DST-3)
Local Time:

Weather
METAR:CYQY 041400Z 20009KT 15SM OVC063 M05/M09 A3013 RMK NS8 SLP207
TAF:CYQY 041139Z 0412/0424 18008KT P6SM OVC080
TEMPO 0412/0414 5SM -SN OVC040
FM041400 18012G22KT 3SM -SN OVC015
TEMPO 0414/0422 6SM -SN BKN025 OVC040
BECMG 0416/0418 20015G25KT
FM042200 24008KT 6SM BR OVC015
RMK NXT FCST BY 041800Z

Related Locations
Nearby:
Farthest:ALH: 11648 mi / 18746 km
Albany, WA, AU

Find:

   beyond  
but within

Other Information
Maps:
NOTAMs:
Links:
Sources:

  
  • flag of Canada
  • flag of Nova Scotia
  

Airport Diagram

Airport diagram for YQY

Airport diagram PDF

Sectional Chart

Flight Planning
at skyvector.com

Satellite Image

Google Maps Satellite view

 

Copyright © 2004-2019 Karl L. Swartz. All rights reserved.
The Great Circle Mapper name and logo are trademarks of the Great Circle Mapper.
All other trademarks mentioned herein belong to their respective owners.
Please see credits for attibutions and further copyright information.

  Follow gcmap on Facebook Follow gcmap on Twitter GCmap on LinkedIn

hCard Microformat

Geo Microformat